| time (UTC) | temp F | wind direction | speed MPH | gust MPH | rain 1hr in | rain 24hr in | rain mn in | humidity % | barometer mb |
| 20260510071116 | 0 | 358 | 0.0 | 6.0 | 0.00 | 0.00 | 0.01 | ||
| 20260510065422 | 51 | 357 | 0.0 | 6.0 | 0.00 | 0.00 | 0.01 | 72 | 1008.4 |
| 20260510064742 | 51 | 357 | 1.0 | 6.0 | 0.00 | 0.00 | 0.01 | 72 | 1008.2 |
| 20260510064102 | 0 | 356 | 0.0 | 4.0 | 0.00 | 0.00 | 0.01 | ||
| 20260510063310 | 51 | 359 | 0.0 | 6.0 | 0.00 | 0.00 | 0.01 | 86 | 1008.0 |
| 20260510062522 | 0 | 357 | 1.0 | 5.0 | 0.00 | 0.00 | 0.01 | ||
| 20260510061732 | 50 | 356 | 0.0 | 3.0 | 0.00 | 0.00 | 0.01 | 88 | 1007.9 |
| 20260510061053 | 0 | 354 | 0.0 | 0.0 | 0.00 | 0.00 | 0.01 | ||
| 20260510060305 | 0 | 357 | 0.0 | 5.0 | 0.00 | 0.00 | 0.01 | ||
| 20260510055404 | 0 | 356 | 0.0 | 7.0 | 0.00 | 0.00 | 0.01 | ||
| 20260510054504 | 0 | 355 | 0.0 | 4.0 | 0.00 | 0.00 | 0.01 | ||
| 20260510053712 | 0 | 356 | 0.0 | 0.0 | 0.00 | 0.00 | 0.01 | ||
| 20260510052920 | 52 | 358 | 0.0 | 0.0 | 0.00 | 0.00 | 0.01 | 84 | 1007.6 |
| 20260510052130 | 51 | 356 | 0.0 | 0.0 | 0.00 | 0.00 | 0.01 | 84 | 1007.5 |
| 20260510051450 | 51 | 357 | 0.0 | 0.0 | 0.00 | 0.00 | 0.01 | 87 | 1007.7 |
| 20260510050810 | 50 | 356 | 0.0 | 0.0 | 0.00 | 0.00 | 0.01 | 87 | 1007.0 |
| 20260510050130 | 50 | 357 | 0.0 | 0.0 | 0.00 | 0.00 | 0.01 | 86 | 1006.3 |
| 20260510045450 | 51 | 357 | 0.0 | 0.0 | 0.00 | 0.00 | 0.00 | 84 | 1007.1 |
| 20260510044550 | 52 | 358 | 0.0 | 0.0 | 0.00 | 0.00 | 0.00 | 86 | 1006.7 |
| 20260510043911 | 52 | 356 | 0.0 | 0.0 | 0.00 | 0.00 | 0.00 | 87 | 1006.6 |
| 20260510043122 | 51 | 359 | 0.0 | 0.0 | 0.00 | 0.00 | 0.00 | 87 | 1006.6 |
| 20260510042442 | 0 | 357 | 0.0 | 0.0 | 0.00 | 0.00 | 0.00 | ||
| 20260510041543 | 0 | 357 | 0.0 | 0.0 | 0.00 | 0.00 | 0.00 | ||
| 20260510040534 | 51 | 356 | 0.0 | 0.0 | 0.00 | 0.00 | 0.00 | 85 | 1006.2 |
| 20260510035855 | 51 | 357 | 0.0 | 0.0 | 0.00 | 0.00 | 0.00 | 84 | 1006.1 |
| 20260510035215 | 0 | 357 | 0.0 | 0.0 | 0.00 | 0.00 | 0.00 | ||
| 20260510034427 | 52 | 357 | 0.0 | 0.0 | 0.00 | 0.00 | 0.00 | 83 | 1006.2 |
| 20260510033746 | 0 | 357 | 0.0 | 0.0 | 0.00 | 0.00 | 0.00 | ||
| 20260510032957 | 0 | 358 | 0.0 | 0.0 | 0.00 | 0.00 | 0.00 | ||
| 20260510032056 | 54 | 356 | 0.0 | 0.0 | 0.00 | 0.00 | 0.00 | 76 | 1006.2 |
| 20260510031418 | 54 | 358 | 0.0 | 6.0 | 0.00 | 0.00 | 0.00 | 76 | 1006.1 |
| 20260510030736 | 0 | 355 | 4.0 | 6.0 | 0.00 | 0.00 | 0.33 | ||
| 20260510025948 | 0 | 357 | 0.0 | 0.0 | 0.00 | 0.00 | 0.33 | ||
| 20260510025155 | 54 | 354 | 0.0 | 0.0 | 0.00 | 0.00 | 0.33 | 76 | 1005.9 |
| 20260510024515 | 53 | 357 | 0.0 | 0.0 | 0.00 | 0.00 | 0.33 | 78 | 1005.6 |
| 20260510023835 | 53 | 357 | 0.0 | 4.0 | 0.00 | 0.00 | 0.33 | 78 | 1005.6 |
| 20260510023155 | 53 | 358 | 0.0 | 5.0 | 0.00 | 0.00 | 0.33 | 78 | 1005.5 |
| 20260510022517 | 0 | 357 | 0.0 | 8.0 | 0.00 | 0.00 | 0.33 | ||
| 20260510021354 | 0 | 355 | 1.0 | 5.0 | 0.00 | 0.00 | 0.33 | ||
| 20260510020236 | 52 | 356 | 0.0 | 7.0 | 0.00 | 0.00 | 0.33 | 81 | 1005.3 |
| 20260510015555 | 52 | 357 | 0.0 | 8.0 | 0.00 | 0.00 | 0.33 | 82 | 1005.5 |
| 20260510014915 | 53 | 357 | 2.0 | 6.0 | 0.00 | 0.00 | 0.33 | 82 | 1005.4 |
| 20260510014236 | 53 | 357 | 0.0 | 5.0 | 0.00 | 0.00 | 0.33 | 81 | 1005.3 |
| 20260510013556 | 0 | 357 | 0.0 | 5.0 | 0.00 | 0.00 | 0.33 | ||
| 20260510012655 | 53 | 356 | 0.0 | 8.0 | 0.00 | 0.00 | 0.33 | 79 | 1005.2 |
| 20260510012015 | 54 | 354 | 6.0 | 9.0 | 0.00 | 0.00 | 0.33 | 79 | 1005.1 |
| 20260510011334 | 54 | 358 | 6.0 | 11.0 | 0.00 | 0.00 | 0.33 | 79 | 1005.1 |
| 20260510010655 | 54 | 356 | 6.0 | 14.0 | 0.00 | 0.00 | 0.33 | 79 | 1005.0 |
| 20260510010015 | 0 | 357 | 7.0 | 9.0 | 0.00 | 0.00 | 0.33 | ||
| 20260510005225 | 54 | 356 | 12.0 | 18.0 | 0.00 | 0.00 | 0.33 | 75 | 1004.9 |
| 20260510004545 | 0 | 358 | 10.0 | 9.0 | 0.00 | 0.00 | 0.33 | ||
| 20260510003754 | 54 | 356 | 10.0 | 22.0 | 0.00 | 0.00 | 0.33 | 80 | 1004.1 |
| 20260510003114 | 53 | 355 | 13.0 | 22.0 | 0.00 | 0.00 | 0.33 | 81 | 1003.9 |
| 20260510002434 | 53 | 356 | 10.0 | 19.0 | 0.00 | 0.00 | 0.33 | 90 | 1003.8 |
| 20260510001755 | 0 | 356 | 10.0 | 6.0 | 0.00 | 0.00 | 0.33 | ||
| 20260510001005 | 53 | 356 | 16.0 | 22.0 | 0.00 | 0.00 | 0.33 | 97 | 1004.3 |
| 20260510000327 | 0 | 356 | 11.0 | 12.0 | 0.00 | 0.00 | 0.33 | ||
| 20260509235426 | 0 | 356 | 10.0 | 9.0 | 0.00 | 0.00 | 0.32 | ||
| 20260509234634 | 0 | 358 | 7.0 | 10.0 | 0.00 | 0.00 | 0.30 | ||
| 20260509233841 | 51 | 359 | 1.0 | 2.0 | 0.00 | 0.00 | 0.27 | 97 | 1005.1 |
| 20260509233051 | 0 | 357 | 8.0 | 8.0 | 0.00 | 0.00 | 0.25 | ||
| 20260509232306 | 0 | 355 | 9.0 | 9.0 | 0.00 | 0.00 | 0.23 | ||
| 20260509231511 | 51 | 355 | 12.0 | 21.0 | 0.00 | 0.00 | 0.21 | 97 | 1005.6 |
| 20260509230831 | 0 | 356 | 17.0 | 17.0 | 0.00 | 0.00 | 0.18 | ||
| 20260509225928 | 51 | 354 | 24.0 | 46.0 | 0.00 | 0.00 | 0.10 | 93 | 1005.0 |
| 20260509225248 | 56 | 355 | 8.0 | 11.0 | 0.00 | 0.00 | 0.00 | 74 | 1004.0 |
| 20260509224608 | 0 | 356 | 0.0 | 0.0 | 0.00 | 0.00 | 0.00 | ||
| 20260509223819 | 56 | 355 | 0.0 | 0.0 | 0.00 | 0.00 | 0.00 | 69 | 1003.0 |
| 20260509223139 | 57 | 360 | 0.0 | 0.0 | 0.00 | 0.00 | 0.00 | 67 | 1002.9 |
| 20260509222459 | 0 | 358 | 0.0 | 0.0 | 0.00 | 0.00 | 0.00 | ||
| 20260509221708 | 58 | 355 | 0.0 | 0.0 | 0.00 | 0.00 | 0.00 | 65 | 1002.5 |
| 20260509221028 | 58 | 356 | 0.0 | 0.0 | 0.00 | 0.00 | 0.00 | 66 | 1002.4 |
| 20260509220350 | 58 | 355 | 0.0 | 0.0 | 0.00 | 0.00 | 0.00 | 63 | 1002.5 |
| 20260509215708 | 58 | 357 | 0.0 | 0.0 | 0.00 | 0.00 | 0.00 | 63 | 1002.6 |
| 20260509215029 | 0 | 356 | 0.0 | 0.0 | 0.00 | 0.00 | 0.00 | ||
| 20260509214132 | 59 | 360 | 0.0 | 0.0 | 0.00 | 0.00 | 0.00 | 62 | 1002.6 |
| 20260509213452 | 59 | 356 | 0.0 | 5.0 | 0.00 | 0.00 | 0.00 | 60 | 1002.6 |
| 20260509212813 | 60 | 354 | 1.0 | 5.0 | 0.00 | 0.00 | 0.00 | 60 | 1002.7 |
| 20260509212131 | 59 | 356 | 0.0 | 6.0 | 0.00 | 0.00 | 0.00 | 64 | 1002.7 |
| 20260509211452 | 57 | 358 | 2.0 | 7.0 | 0.00 | 0.00 | 0.00 | 66 | 1003.1 |
| 20260509210812 | 0 | 355 | 0.0 | 0.0 | 0.00 | 0.00 | 0.00 | ||
| 20260509210022 | 0 | 356 | 0.0 | 0.0 | 0.00 | 0.00 | 0.00 | ||
| 20260509205124 | 59 | 357 | 0.0 | 6.0 | 0.00 | 0.00 | 0.00 | 63 | 1003.2 |
| 20260509204445 | 0 | 353 | 2.0 | 2.0 | 0.00 | 0.00 | 0.00 | ||
| 20260509203658 | 0 | 359 | 0.0 | 0.0 | 0.00 | 0.00 | 0.00 | ||
| 20260509202751 | 57 | 356 | 0.0 | 0.0 | 0.00 | 0.00 | 0.00 | 67 | 1003.0 |
| 20260509202110 | 57 | 356 | 0.0 | 0.0 | 0.00 | 0.00 | 0.00 | 67 | 1003.2 |
| 20260509201431 | 57 | 357 | 0.0 | 0.0 | 0.00 | 0.00 | 0.00 | 67 | 1003.3 |
| 20260509200751 | 59 | 353 | 0.0 | 0.0 | 0.00 | 0.00 | 0.00 | 64 | 1003.4 |
| 20260509200110 | 60 | 357 | 0.0 | 0.0 | 0.00 | 0.00 | 0.00 | 63 | 1003.5 |
| 20260509195430 | 59 | 355 | 0.0 | 0.0 | 0.00 | 0.00 | 0.00 | 65 | 1003.4 |
| 20260509194751 | 60 | 353 | 0.0 | 6.0 | 0.00 | 0.00 | 0.00 | 66 | 1003.4 |
| 20260509194110 | 59 | 355 | 2.0 | 7.0 | 0.00 | 0.00 | 0.00 | 65 | 1003.5 |
| 20260509193431 | 59 | 350 | 3.0 | 7.0 | 0.00 | 0.00 | 0.00 | 67 | 1003.6 |
| 20260509192637 | 59 | 356 | 0.0 | 0.0 | 0.00 | 0.00 | 0.00 | 65 | 1003.8 |
| 20260509191959 | 59 | 356 | 0.0 | 6.0 | 0.00 | 0.00 | 0.00 | 64 | 1003.9 |
| 20260509191318 | 60 | 356 | 3.0 | 8.0 | 0.00 | 0.00 | 0.00 | 63 | 1004.0 |
| 20260509190638 | 58 | 354 | 4.0 | 8.0 | 0.00 | 0.00 | 0.00 | 66 | 1004.1 |
| 20260509185957 | 60 | 356 | 3.0 | 9.0 | 0.00 | 0.00 | 0.00 | 64 | 1004.1 |
| 20260509185318 | 60 | 355 | 6.0 | 9.0 | 0.00 | 0.00 | 0.00 | 64 | 1004.2 |
| 20260509184638 | 0 | 352 | 6.0 | 7.0 | 0.00 | 0.00 | 0.00 | ||
| 20260509183742 | 60 | 357 | 4.0 | 8.0 | 0.00 | 0.00 | 0.00 | 63 | 1004.1 |
| 20260509183102 | 0 | 356 | 4.0 | 6.0 | 0.00 | 0.00 | 0.00 | ||
| 20260509182312 | 0 | 355 | 6.0 | 4.0 | 0.00 | 0.00 | 0.00 | ||
| 20260509181524 | 58 | 356 | 4.0 | 8.0 | 0.00 | 0.00 | 0.00 | 65 | 1004.5 |
| 20260509180843 | 60 | 354 | 0.0 | 0.0 | 0.00 | 0.00 | 0.00 | 63 | 1004.5 |
| 20260509180203 | 59 | 356 | 0.0 | 0.0 | 0.00 | 0.00 | 0.00 | 63 | 1004.6 |
| 20260509175523 | 0 | 356 | 0.0 | 7.0 | 0.00 | 0.00 | 0.00 | ||
| 20260509174622 | 58 | 354 | 4.0 | 7.0 | 0.00 | 0.00 | 0.00 | 66 | 1004.9 |
| 20260509173942 | 60 | 357 | 0.0 | 0.0 | 0.00 | 0.00 | 0.00 | 64 | 1005.2 |
| 20260509173301 | 58 | 355 | 0.0 | 0.0 | 0.00 | 0.00 | 0.00 | 66 | 1005.1 |
| 20260509172621 | 59 | 353 | 0.0 | 7.0 | 0.00 | 0.00 | 0.00 | 65 | 1005.1 |
| 20260509171946 | 60 | 357 | 0.0 | 6.0 | 0.00 | 0.00 | 0.00 | 62 | 1005.1 |
| 20260509171302 | 0 | 0 | 4.0 | 4.0 | 0.00 | 0.00 | 0.00 | ||
| 20260509170501 | 58 | 358 | 5.0 | 10.0 | 0.00 | 0.00 | 0.00 | 65 | 1005.2 |
| 20260509165821 | 60 | 354 | 2.0 | 7.0 | 0.00 | 0.00 | 0.00 | 64 | 1005.2 |
| 20260509165146 | 60 | 359 | 1.0 | 8.0 | 0.00 | 0.00 | 0.00 | 63 | 1005.1 |
| 20260509164502 | 59 | 357 | 3.0 | 8.0 | 0.00 | 0.00 | 0.00 | 65 | 1005.3 |
| 20260509163823 | 0 | 357 | 0.0 | 0.0 | 0.00 | 0.00 | 0.00 | ||
| 20260509163035 | 0 | 354 | 0.0 | 8.0 | 0.00 | 0.00 | 0.00 | ||
| 20260509162135 | 60 | 355 | 5.0 | 8.0 | 0.00 | 0.00 | 0.00 | 61 | 1005.4 |
| 20260509161456 | 60 | 355 | 0.0 | 0.0 | 0.00 | 0.00 | 0.00 | 62 | 1005.4 |
| 20260509160817 | 0 | 354 | 0.0 | 0.0 | 0.00 | 0.00 | 0.00 | ||
| 20260509160026 | 60 | 356 | 0.0 | 0.0 | 0.00 | 0.00 | 0.00 | 62 | 1005.4 |
| 20260509155346 | 59 | 357 | 0.0 | 0.0 | 0.00 | 0.00 | 0.00 | 62 | 1005.5 |
| 20260509154705 | 59 | 357 | 0.0 | 4.0 | 0.00 | 0.00 | 0.00 | 62 | 1005.6 |
| 20260509154026 | 0 | 350 | 0.0 | 6.0 | 0.00 | 0.00 | 0.00 | ||
| 20260509153201 | 59 | 357 | 0.0 | 0.0 | 0.00 | 0.00 | 0.00 | 63 | 1005.7 |
| 20260509152521 | 58 | 356 | 0.0 | 0.0 | 0.00 | 0.00 | 0.00 | 64 | 1005.7 |
| 20260509151841 | 58 | 356 | 0.0 | 0.0 | 0.00 | 0.00 | 0.00 | 63 | 1005.7 |
| 20260509151201 | 58 | 356 | 0.0 | 0.0 | 0.00 | 0.00 | 0.00 | 65 | 1005.7 |
| 20260509150521 | 57 | 356 | 0.0 | 0.0 | 0.00 | 0.00 | 0.00 | 64 | 1005.7 |
| 20260509145841 | 59 | 357 | 0.0 | 0.0 | 0.00 | 0.00 | 0.00 | 62 | 1005.6 |
| 20260509145202 | 57 | 357 | 0.0 | 5.0 | 0.00 | 0.00 | 0.00 | 66 | 1005.7 |
| 20260509144521 | 59 | 357 | 0.0 | 4.0 | 0.00 | 0.00 | 0.00 | 62 | 1005.8 |
| 20260509143841 | 57 | 357 | 0.0 | 6.0 | 0.00 | 0.00 | 0.00 | 65 | 1005.8 |
| 20260509143201 | 0 | 356 | 0.0 | 6.0 | 0.00 | 0.00 | 0.00 | ||
| 20260509142258 | 57 | 352 | 2.0 | 10.0 | 0.00 | 0.00 | 0.00 | 61 | 1005.8 |
| 20260509141618 | 57 | 356 | 5.0 | 10.0 | 0.00 | 0.00 | 0.00 | 62 | 1005.9 |
| 20260509140937 | 57 | 357 | 4.0 | 10.0 | 0.00 | 0.00 | 0.00 | 64 | 1006.0 |
| 20260509140258 | 56 | 356 | 7.0 | 10.0 | 0.00 | 0.00 | 0.00 | 65 | 1006.1 |
| 20260509135618 | 56 | 355 | 4.0 | 10.0 | 0.00 | 0.00 | 0.00 | 65 | 1006.1 |
| 20260509134938 | 56 | 355 | 4.0 | 10.0 | 0.00 | 0.00 | 0.00 | 65 | 1006.0 |
| 20260509134258 | 58 | 357 | 5.0 | 10.0 | 0.00 | 0.00 | 0.00 | 66 | 1006.1 |
| 20260509133619 | 57 | 355 | 5.0 | 10.0 | 0.00 | 0.00 | 0.00 | 67 | 1006.1 |
| 20260509132939 | 0 | 355 | 8.0 | 8.0 | 0.00 | 0.00 | 0.00 | ||
| 20260509132151 | 56 | 356 | 5.0 | 11.0 | 0.00 | 0.00 | 0.00 | 68 | 1006.2 |
| 20260509131510 | 56 | 357 | 3.0 | 6.0 | 0.00 | 0.00 | 0.00 | 68 | 1006.3 |
| 20260509130718 | 0 | 355 | 9.0 | 8.0 | 0.00 | 0.00 | 0.00 | ||
| 20260509125926 | 55 | 357 | 8.0 | 10.0 | 0.00 | 0.00 | 0.00 | 69 | 1006.4 |
| 20260509125248 | 0 | 353 | 6.0 | 8.0 | 0.00 | 0.00 | 0.00 | ||
| 20260509124457 | 55 | 356 | 7.0 | 14.0 | 0.00 | 0.00 | 0.00 | 68 | 1006.4 |
| 20260509123818 | 55 | 356 | 8.0 | 11.0 | 0.00 | 0.00 | 0.00 | 69 | 1006.5 |
| 20260509123138 | 54 | 358 | 8.0 | 11.0 | 0.00 | 0.00 | 0.00 | 70 | 1006.5 |
| 20260509122457 | 54 | 358 | 7.0 | 10.0 | 0.00 | 0.00 | 0.00 | 70 | 1006.5 |
| 20260509121817 | 54 | 355 | 4.0 | 10.0 | 0.00 | 0.00 | 0.00 | 72 | 1006.6 |
| 20260509121137 | 0 | 357 | 7.0 | 2.0 | 0.00 | 0.00 | 0.00 | ||
| 20260509120344 | 54 | 353 | 5.0 | 9.0 | 0.00 | 0.00 | 0.00 | 73 | 1006.7 |
| 20260509115704 | 53 | 357 | 3.0 | 8.0 | 0.00 | 0.00 | 0.00 | 72 | 1006.7 |
| 20260509115024 | 0 | 356 | 4.0 | 4.0 | 0.00 | 0.00 | 0.00 | ||
| 20260509114233 | 0 | 355 | 3.0 | 3.0 | 0.00 | 0.00 | 0.00 | ||
| 20260509113335 | 52 | 355 | 5.0 | 10.0 | 0.00 | 0.00 | 0.00 | 74 | 1006.7 |
| 20260509112653 | 52 | 356 | 3.0 | 9.0 | 0.00 | 0.00 | 0.00 | 74 | 1006.6 |
| 20260509112014 | 51 | 356 | 3.0 | 9.0 | 0.00 | 0.00 | 0.00 | 74 | 1006.7 |
| 20260509111333 | 51 | 356 | 5.0 | 8.0 | 0.00 | 0.00 | 0.00 | 75 | 1006.8 |
| 20260509110656 | 51 | 355 | 4.0 | 8.0 | 0.00 | 0.00 | 0.00 | 75 | 1006.8 |
| 20260509110014 | 0 | 357 | 4.0 | 4.0 | 0.00 | 0.00 | 0.00 | ||
| 20260509105111 | 50 | 357 | 4.0 | 9.0 | 0.00 | 0.00 | 0.00 | 75 | 1006.7 |
| 20260509104431 | 50 | 356 | 5.0 | 9.0 | 0.00 | 0.00 | 0.00 | 75 | 1006.7 |
| 20260509103751 | 0 | 356 | 4.0 | 9.0 | 0.00 | 0.00 | 0.00 | ||
| 20260509103001 | 50 | 357 | 3.0 | 7.0 | 0.00 | 0.00 | 0.00 | 75 | 1006.7 |
| 20260509102320 | 49 | 356 | 2.0 | 7.0 | 0.00 | 0.00 | 0.00 | 76 | 1006.8 |
| 20260509101641 | 49 | 355 | 3.0 | 7.0 | 0.00 | 0.00 | 0.00 | 77 | 1006.7 |
| 20260509101002 | 49 | 355 | 4.0 | 6.0 | 0.00 | 0.00 | 0.00 | 77 | 1006.7 |
| 20260509100321 | 0 | 357 | 0.0 | 5.0 | 0.00 | 0.00 | 0.00 | ||
| 20260509095530 | 48 | 356 | 2.0 | 5.0 | 0.00 | 0.00 | 0.00 | 76 | 1006.7 |
| 20260509094850 | 49 | 358 | 2.0 | 6.0 | 0.00 | 0.00 | 0.00 | 76 | 1006.6 |
| 20260509094210 | 49 | 357 | 2.0 | 2.0 | 0.00 | 0.00 | 0.00 | 76 | 1006.6 |
| 20260509093421 | 49 | 356 | 3.0 | 6.0 | 0.00 | 0.00 | 0.00 | 76 | 1006.6 |
| 20260509092746 | 49 | 357 | 2.0 | 7.0 | 0.00 | 0.00 | 0.00 | 75 | 1006.6 |
| 20260509092100 | 49 | 356 | 2.0 | 7.0 | 0.00 | 0.00 | 0.00 | 75 | 1006.6 |
| 20260509091421 | 49 | 357 | 4.0 | 7.0 | 0.00 | 0.00 | 0.00 | 74 | 1006.7 |
| 20260509090740 | 49 | 356 | 2.0 | 6.0 | 0.00 | 0.00 | 0.00 | 74 | 1006.7 |
| 20260509085158 | 0 | 355 | 4.0 | 7.0 | 0.00 | 0.00 | 0.00 | ||
| 20260509084407 | 0 | 358 | 2.0 | 5.0 | 0.00 | 0.00 | 0.00 | ||
| 20260509083618 | 49 | 357 | 3.0 | 8.0 | 0.00 | 0.00 | 0.00 | 71 | 1006.8 |
| 20260509082938 | 0 | 359 | 3.0 | 6.0 | 0.00 | 0.00 | 0.00 | ||
| 20260509081930 | 0 | 357 | 0.0 | 4.0 | 0.00 | 0.00 | 0.00 | ||
| 20260509081137 | 0 | 356 | 0.0 | 8.0 | 0.00 | 0.00 | 0.00 | ||
| 20260509080347 | 49 | 357 | 4.0 | 8.0 | 0.00 | 0.00 | 0.00 | 70 | 1006.8 |
| 20260509075708 | 49 | 357 | 2.0 | 8.0 | 0.00 | 0.00 | 0.00 | 69 | 1006.9 |
| 20260509075027 | 0 | 357 | 7.0 | 7.0 | 0.00 | 0.00 | 0.00 | ||
| 20260509074237 | 48 | 357 | 3.0 | 6.0 | 0.00 | 0.00 | 0.00 | 67 | 1007.1 |
| 20260509073557 | 47 | 356 | 3.0 | 6.0 | 0.00 | 0.00 | 0.00 | 67 | 1007.2 |
| 20260509072917 | 47 | 357 | 2.0 | 6.0 | 0.00 | 0.00 | 0.00 | 65 | 1007.3 |
| 20260509072236 | 47 | 357 | 0.0 | 0.0 | 0.00 | 0.00 | 0.00 | 64 | 1007.2 |
| 20260509071556 | 47 | 359 | 0.0 | 0.0 | 0.00 | 0.00 | 0.00 | 63 | 1007.4 |